| time (UTC) | temp F | wind direction | speed MPH | gust MPH | rain 1hr in | rain 24hr in | rain mn in | humidity % | barometer mb |
| 20260509153735 | 61 | 32 | 0.0 | 3.0 | 0.00 | 0.00 | 0.00 | 86 | |
| 20260509153239 | 60 | 134 | 2.0 | 3.0 | 0.00 | 0.00 | 0.00 | 86 | |
| 20260509152741 | 60 | 120 | 1.0 | 3.0 | 0.00 | 0.00 | 0.00 | 87 | |
| 20260509152308 | 60 | 287 | 1.0 | 3.0 | 0.00 | 0.00 | 0.00 | 87 | |
| 20260509151748 | 60 | 308 | 0.0 | 3.0 | 0.00 | 0.00 | 0.00 | 87 | |
| 20260509151253 | 59 | 306 | 1.0 | 3.0 | 0.00 | 0.00 | 0.00 | 87 | |
| 20260509150735 | 59 | 265 | 1.0 | 5.0 | 0.00 | 0.00 | 0.00 | 87 | |
| 20260509150305 | 59 | 257 | 3.0 | 5.0 | 0.00 | 0.00 | 0.00 | 87 | |
| 20260509145802 | 59 | 325 | 2.0 | 4.0 | 0.00 | 0.00 | 0.00 | 88 | |
| 20260509145253 | 59 | 322 | 2.0 | 4.0 | 0.00 | 0.00 | 0.00 | 88 | |
| 20260509144735 | 59 | 319 | 2.0 | 4.0 | 0.00 | 0.00 | 0.00 | 88 | |
| 20260509144251 | 59 | 316 | 0.0 | 3.0 | 0.00 | 0.00 | 0.00 | 88 | |
| 20260509143753 | 58 | 320 | 2.0 | 3.0 | 0.00 | 0.00 | 0.00 | 88 | |
| 20260509143238 | 58 | 326 | 2.0 | 4.0 | 0.00 | 0.00 | 0.00 | 88 | |
| 20260509142740 | 58 | 18 | 1.0 | 4.0 | 0.00 | 0.00 | 0.00 | 88 | |
| 20260509142237 | 58 | 322 | 2.0 | 4.0 | 0.00 | 0.00 | 0.00 | 88 | |
| 20260509141739 | 58 | 347 | 0.0 | 3.0 | 0.00 | 0.00 | 0.00 | 88 | |
| 20260509141251 | 58 | 320 | 1.0 | 3.0 | 0.00 | 0.00 | 0.00 | 88 | |
| 20260509140734 | 58 | 315 | 0.0 | 2.0 | 0.00 | 0.00 | 0.00 | 88 | |
| 20260509140243 | 58 | 296 | 0.0 | 2.0 | 0.00 | 0.00 | 0.00 | 88 | |
| 20260509135742 | 58 | 332 | 1.0 | 2.0 | 0.00 | 0.00 | 0.00 | 88 | |
| 20260509135306 | 58 | 331 | 1.0 | 2.0 | 0.00 | 0.00 | 0.00 | 88 | |
| 20260509134740 | 58 | 48 | 1.0 | 2.0 | 0.00 | 0.00 | 0.00 | 88 | |
| 20260509134242 | 58 | 75 | 0.0 | 3.0 | 0.00 | 0.00 | 0.00 | 88 | |
| 20260509133743 | 58 | 89 | 2.0 | 5.0 | 0.00 | 0.00 | 0.00 | 88 | |
| 20260509133251 | 58 | 60 | 0.0 | 2.0 | 0.00 | 0.00 | 0.00 | 88 | |
| 20260509132812 | 58 | 345 | 1.0 | 2.0 | 0.00 | 0.00 | 0.00 | 88 | |
| 20260509132233 | 58 | 354 | 0.0 | 0.0 | 0.00 | 0.00 | 0.00 | 88 | |
| 20260509131736 | 58 | 341 | 0.0 | 2.0 | 0.00 | 0.00 | 0.00 | 88 | |
| 20260509131234 | 58 | 17 | 1.0 | 2.0 | 0.00 | 0.00 | 0.00 | 88 | |
| 20260509130736 | 58 | 321 | 0.0 | 2.0 | 0.00 | 0.00 | 0.00 | 88 | |
| 20260509130242 | 58 | 321 | 1.0 | 2.0 | 0.00 | 0.00 | 0.00 | 88 | |
| 20260509125741 | 58 | 273 | 1.0 | 2.0 | 0.00 | 0.00 | 0.00 | 87 | |
| 20260509125233 | 58 | 326 | 0.0 | 3.0 | 0.00 | 0.00 | 0.00 | 87 | |
| 20260509124735 | 58 | 326 | 2.0 | 3.0 | 0.00 | 0.00 | 0.00 | 87 | |
| 20260509124232 | 58 | 306 | 1.0 | 3.0 | 0.00 | 0.00 | 0.00 | 87 | |
| 20260509123736 | 58 | 133 | 0.0 | 4.0 | 0.00 | 0.00 | 0.00 | 87 | |
| 20260509123238 | 58 | 77 | 0.0 | 4.0 | 0.00 | 0.00 | 0.00 | 87 | |
| 20260509122759 | 58 | 58 | 0.0 | 3.0 | 0.00 | 0.00 | 0.00 | 87 | |
| 20260509122305 | 58 | 95 | 1.0 | 2.0 | 0.00 | 0.00 | 0.00 | 87 | |
| 20260509121801 | 58 | 122 | 0.0 | 4.0 | 0.00 | 0.00 | 0.00 | 87 | |
| 20260509121252 | 58 | 128 | 1.0 | 5.0 | 0.00 | 0.00 | 0.00 | 87 | |
| 20260509120734 | 58 | 115 | 3.0 | 4.0 | 0.00 | 0.00 | 0.00 | 87 | |
| 20260509120240 | 58 | 136 | 2.0 | 3.0 | 0.00 | 0.00 | 0.00 | 87 | |
| 20260509115739 | 58 | 89 | 2.0 | 3.0 | 0.00 | 0.00 | 0.00 | 87 | |
| 20260509115300 | 58 | 110 | 2.0 | 3.0 | 0.00 | 0.00 | 0.00 | 87 | |
| 20260509114742 | 58 | 147 | 1.0 | 3.0 | 0.00 | 0.00 | 0.00 | 86 | |
| 20260509114249 | 58 | 8 | 0.0 | 2.0 | 0.00 | 0.00 | 0.00 | 86 | |
| 20260509113750 | 58 | 8 | 0.0 | 4.0 | 0.00 | 0.00 | 0.00 | 86 | |
| 20260509113235 | 58 | 27 | 2.0 | 5.0 | 0.00 | 0.00 | 0.00 | 86 | |
| 20260509112756 | 58 | 73 | 1.0 | 5.0 | 0.00 | 0.00 | 0.00 | 86 | |
| 20260509112240 | 58 | 4 | 1.0 | 2.0 | 0.00 | 0.00 | 0.00 | 86 | |
| 20260509111736 | 58 | 28 | 0.0 | 4.0 | 0.00 | 0.00 | 0.00 | 86 | |
| 20260509111255 | 58 | 37 | 1.0 | 4.0 | 0.00 | 0.00 | 0.00 | 86 | |
| 20260509110736 | 58 | 270 | 0.0 | 2.0 | 0.00 | 0.00 | 0.00 | 86 | |
| 20260509110254 | 59 | 166 | 0.0 | 3.0 | 0.00 | 0.00 | 0.00 | 86 | |
| 20260509105754 | 59 | 109 | 1.0 | 4.0 | 0.00 | 0.00 | 0.00 | 86 | |
| 20260509105234 | 59 | 87 | 2.0 | 5.0 | 0.00 | 0.00 | 0.00 | 86 | |
| 20260509104757 | 59 | 91 | 2.0 | 4.0 | 0.00 | 0.00 | 0.00 | 86 | |
| 20260509104235 | 59 | 42 | 3.0 | 4.0 | 0.00 | 0.00 | 0.00 | 86 | |
| 20260509103756 | 59 | 85 | 2.0 | 3.0 | 0.00 | 0.00 | 0.00 | 86 | |
| 20260509103235 | 58 | 75 | 0.0 | 3.0 | 0.00 | 0.00 | 0.00 | 86 | |
| 20260509102757 | 58 | 116 | 1.0 | 3.0 | 0.00 | 0.00 | 0.00 | 86 | |
| 20260509102259 | 58 | 115 | 1.0 | 5.0 | 0.00 | 0.00 | 0.00 | 85 | |
| 20260509101801 | 58 | 118 | 2.0 | 5.0 | 0.00 | 0.00 | 0.00 | 85 | |
| 20260509101241 | 58 | 122 | 0.0 | 0.0 | 0.00 | 0.00 | 0.00 | 85 | |
| 20260509100738 | 58 | 110 | 0.0 | 0.0 | 0.00 | 0.00 | 0.00 | 85 | |
| 20260509100308 | 58 | 133 | 0.0 | 0.0 | 0.00 | 0.00 | 0.00 | 85 | |
| 20260509095747 | 58 | 135 | 0.0 | 2.0 | 0.00 | 0.00 | 0.00 | 84 | |
| 20260509095246 | 58 | 105 | 1.0 | 2.0 | 0.00 | 0.00 | 0.00 | 84 | |
| 20260509094745 | 59 | 138 | 1.0 | 2.0 | 0.00 | 0.00 | 0.00 | 84 | |
| 20260509094241 | 59 | 135 | 1.0 | 3.0 | 0.00 | 0.00 | 0.00 | 84 | |
| 20260509093741 | 59 | 141 | 1.0 | 3.0 | 0.00 | 0.00 | 0.00 | 84 | |
| 20260509093259 | 59 | 126 | 1.0 | 3.0 | 0.00 | 0.00 | 0.00 | 83 | |
| 20260509092800 | 59 | 141 | 1.0 | 3.0 | 0.00 | 0.00 | 0.00 | 83 | |
| 20260509092247 | 59 | 137 | 1.0 | 3.0 | 0.00 | 0.00 | 0.00 | 83 | |
| 20260509091750 | 59 | 145 | 2.0 | 3.0 | 0.00 | 0.00 | 0.00 | 83 | |
| 20260509091249 | 59 | 110 | 1.0 | 3.0 | 0.00 | 0.00 | 0.00 | 83 | |
| 20260509090732 | 60 | 111 | 1.0 | 3.0 | 0.00 | 0.00 | 0.00 | 83 | |
| 20260509090238 | 60 | 80 | 2.0 | 3.0 | 0.00 | 0.00 | 0.00 | 82 | |
| 20260509085758 | 60 | 70 | 1.0 | 2.0 | 0.00 | 0.00 | 0.00 | 82 | |
| 20260509085242 | 60 | 145 | 1.0 | 2.0 | 0.00 | 0.00 | 0.00 | 82 | |
| 20260509084743 | 60 | 137 | 1.0 | 2.0 | 0.00 | 0.00 | 0.00 | 82 | |
| 20260509084236 | 60 | 118 | 0.0 | 3.0 | 0.00 | 0.00 | 0.00 | 82 | |
| 20260509083736 | 60 | 93 | 1.0 | 3.0 | 0.00 | 0.00 | 0.00 | 82 | |
| 20260509083255 | 60 | 135 | 0.0 | 0.0 | 0.00 | 0.00 | 0.00 | 81 | |
| 20260509082820 | 60 | 108 | 0.0 | 0.0 | 0.00 | 0.00 | 0.00 | 81 | |
| 20260509082243 | 60 | 108 | 0.0 | 0.0 | 0.00 | 0.00 | 0.00 | 81 | |
| 20260509081804 | 61 | 118 | 0.0 | 0.0 | 0.00 | 0.00 | 0.00 | 81 | |
| 20260509081244 | 61 | 118 | 0.0 | 0.0 | 0.00 | 0.00 | 0.00 | 81 | |
| 20260509080801 | 61 | 135 | 0.0 | 0.0 | 0.00 | 0.00 | 0.00 | 81 | |
| 20260509080243 | 61 | 138 | 0.0 | 0.0 | 0.00 | 0.00 | 0.00 | 81 | |
| 20260509075741 | 61 | 146 | 0.0 | 0.0 | 0.00 | 0.00 | 0.00 | 81 | |
| 20260509075244 | 61 | 135 | 0.0 | 0.0 | 0.00 | 0.00 | 0.00 | 80 | |
| 20260509074743 | 61 | 145 | 0.0 | 0.0 | 0.00 | 0.00 | 0.00 | 80 | |
| 20260509074240 | 61 | 67 | 0.0 | 2.0 | 0.00 | 0.00 | 0.00 | 80 | |
| 20260509073801 | 62 | 63 | 0.0 | 3.0 | 0.00 | 0.00 | 0.00 | 80 | |
| 20260509073249 | 62 | 107 | 0.0 | 2.0 | 0.00 | 0.00 | 0.00 | 80 | |
| 20260509072753 | 62 | 124 | 1.0 | 3.0 | 0.00 | 0.00 | 0.00 | 79 | |
| 20260509072236 | 62 | 99 | 2.0 | 3.0 | 0.00 | 0.00 | 0.00 | 79 | |
| 20260509071738 | 62 | 69 | 2.0 | 3.0 | 0.00 | 0.00 | 0.00 | 79 | |
| 20260509071254 | 62 | 78 | 2.0 | 3.0 | 0.00 | 0.00 | 0.00 | 79 | |
| 20260509070752 | 62 | 79 | 2.0 | 3.0 | 0.00 | 0.00 | 0.00 | 79 | |
| 20260509070253 | 62 | 83 | 1.0 | 2.0 | 0.00 | 0.00 | 0.00 | 79 | |
| 20260509065751 | 62 | 83 | 1.0 | 2.0 | 0.00 | 0.00 | 0.00 | 79 | |
| 20260509065257 | 62 | 120 | 1.0 | 2.0 | 0.00 | 0.00 | 0.00 | 79 | |
| 20260509064734 | 62 | 130 | 1.0 | 2.0 | 0.00 | 0.00 | 0.00 | 78 | |
| 20260509064236 | 62 | 68 | 0.0 | 3.0 | 0.00 | 0.00 | 0.00 | 78 | |
| 20260509063736 | 62 | 67 | 1.0 | 5.0 | 0.00 | 0.00 | 0.00 | 78 | |
| 20260509063252 | 62 | 87 | 1.0 | 5.0 | 0.00 | 0.00 | 0.00 | 78 | |
| 20260509062758 | 62 | 125 | 0.0 | 0.0 | 0.00 | 0.00 | 0.00 | 78 | |
| 20260509062259 | 62 | 129 | 0.0 | 0.0 | 0.00 | 0.00 | 0.00 | 78 | |
| 20260509061737 | 62 | 129 | 0.0 | 0.0 | 0.00 | 0.00 | 0.00 | 78 | |
| 20260509061254 | 62 | 83 | 0.0 | 2.0 | 0.00 | 0.00 | 0.00 | 78 | |
| 20260509060755 | 63 | 83 | 1.0 | 3.0 | 0.00 | 0.00 | 0.00 | 77 | |
| 20260509060252 | 63 | 130 | 1.0 | 3.0 | 0.00 | 0.00 | 0.00 | 77 | |
| 20260509055815 | 63 | 135 | 1.0 | 3.0 | 0.00 | 0.00 | 0.00 | 77 | |
| 20260509055237 | 63 | 138 | 2.0 | 3.0 | 0.00 | 0.00 | 0.00 | 76 | |
| 20260509054758 | 63 | 120 | 1.0 | 3.0 | 0.00 | 0.00 | 0.00 | 76 | |
| 20260509054236 | 64 | 120 | 1.0 | 3.0 | 0.00 | 0.00 | 0.00 | 76 | |
| 20260509053757 | 64 | 112 | 1.0 | 3.0 | 0.00 | 0.00 | 0.00 | 76 | |
| 20260509053259 | 64 | 117 | 2.0 | 3.0 | 0.00 | 0.00 | 0.00 | 75 | |
| 20260509052739 | 64 | 121 | 1.0 | 3.0 | 0.00 | 0.00 | 0.00 | 75 | |
| 20260509052302 | 64 | 143 | 2.0 | 3.0 | 0.00 | 0.00 | 0.00 | 75 | |
| 20260509051759 | 65 | 112 | 2.0 | 4.0 | 0.00 | 0.00 | 0.00 | 74 | |
| 20260509051250 | 65 | 143 | 2.0 | 4.0 | 0.00 | 0.00 | 0.00 | 74 | |
| 20260509050752 | 65 | 131 | 2.0 | 5.0 | 0.00 | 0.00 | 0.00 | 73 | |
| 20260509050233 | 65 | 68 | 3.0 | 7.0 | 0.00 | 0.00 | 0.00 | 73 | |
| 20260509045734 | 65 | 80 | 5.0 | 7.0 | 0.00 | 0.00 | 0.00 | 73 | |
| 20260509045256 | 66 | 87 | 5.0 | 7.0 | 0.00 | 0.00 | 0.00 | 73 | |
| 20260509044738 | 66 | 75 | 5.0 | 7.0 | 0.00 | 0.00 | 0.00 | 73 | |
| 20260509044251 | 66 | 91 | 5.0 | 7.0 | 0.00 | 0.00 | 0.00 | 72 | |
| 20260509043819 | 66 | 78 | 4.0 | 7.0 | 0.00 | 0.00 | 0.00 | 72 | |
| 20260509043239 | 66 | 100 | 4.0 | 7.0 | 0.00 | 0.00 | 0.00 | 72 | |
| 20260509042801 | 66 | 102 | 4.0 | 8.0 | 0.00 | 0.00 | 0.00 | 71 | |
| 20260509042256 | 67 | 78 | 4.0 | 8.0 | 0.00 | 0.00 | 0.00 | 71 | |
| 20260509041739 | 67 | 89 | 3.0 | 8.0 | 0.00 | 0.00 | 0.00 | 71 | |
| 20260509041246 | 67 | 92 | 5.0 | 9.0 | 0.00 | 0.00 | 0.00 | 70 | |
| 20260509040754 | 67 | 86 | 5.0 | 7.0 | 0.00 | 0.00 | 0.00 | 70 | |
| 20260509040240 | 67 | 66 | 4.0 | 8.0 | 0.00 | 0.00 | 0.00 | 70 | |
| 20260509035740 | 67 | 75 | 5.0 | 8.0 | 0.00 | 0.00 | 0.00 | 70 | |
| 20260509035241 | 67 | 95 | 6.0 | 8.0 | 0.00 | 0.00 | 0.00 | 70 | |
| 20260509034741 | 67 | 89 | 5.0 | 8.0 | 0.00 | 0.00 | 0.00 | 69 | |
| 20260509034249 | 67 | 95 | 4.0 | 9.0 | 0.00 | 0.00 | 0.00 | 69 | |
| 20260509033749 | 67 | 87 | 5.0 | 9.0 | 0.00 | 0.00 | 0.00 | 69 | |
| 20260509033235 | 68 | 97 | 5.0 | 8.0 | 0.00 | 0.00 | 0.00 | 69 | |
| 20260509032757 | 68 | 62 | 5.0 | 8.0 | 0.00 | 0.00 | 0.00 | 69 | |
| 20260509032237 | 68 | 134 | 4.0 | 7.0 | 0.00 | 0.00 | 0.00 | 68 | |
| 20260509031738 | 68 | 89 | 4.0 | 10.0 | 0.00 | 0.00 | 0.00 | 68 | |
| 20260509031234 | 68 | 85 | 7.0 | 10.0 | 0.00 | 0.00 | 0.00 | 68 | |
| 20260509030757 | 68 | 73 | 5.0 | 9.0 | 0.00 | 0.00 | 0.00 | 67 | |
| 20260509030256 | 68 | 87 | 6.0 | 11.0 | 0.00 | 0.00 | 0.00 | 67 | |
| 20260509025737 | 69 | 50 | 7.0 | 11.0 | 0.00 | 0.00 | 0.00 | 66 | |
| 20260509025239 | 69 | 84 | 6.0 | 9.0 | 0.00 | 0.00 | 0.00 | 65 | |
| 20260509024743 | 70 | 74 | 5.0 | 10.0 | 0.00 | 0.00 | 0.00 | 66 | |
| 20260509024243 | 70 | 81 | 5.0 | 10.0 | 0.00 | 0.00 | 0.00 | 66 | |
| 20260509023745 | 70 | 89 | 6.0 | 11.0 | 0.00 | 0.00 | 0.00 | 65 | |
| 20260509023253 | 70 | 87 | 8.0 | 11.0 | 0.00 | 0.00 | 0.00 | 65 | |
| 20260509022754 | 71 | 86 | 4.0 | 11.0 | 0.00 | 0.00 | 0.00 | 64 | |
| 20260509022239 | 71 | 104 | 7.0 | 13.0 | 0.00 | 0.00 | 0.00 | 64 | |
| 20260509021737 | 71 | 75 | 7.0 | 13.0 | 0.00 | 0.00 | 0.00 | 63 | |
| 20260509021255 | 72 | 80 | 7.0 | 11.0 | 0.00 | 0.00 | 0.00 | 62 | |
| 20260509020734 | 72 | 117 | 6.0 | 9.0 | 0.00 | 0.00 | 0.00 | 61 | |
| 20260509020237 | 73 | 108 | 5.0 | 9.0 | 0.00 | 0.00 | 0.00 | 61 | |
| 20260509015759 | 73 | 105 | 5.0 | 9.0 | 0.00 | 0.00 | 0.00 | 61 | |
| 20260509015243 | 73 | 107 | 7.0 | 9.0 | 0.00 | 0.00 | 0.00 | 60 | |
| 20260509014804 | 74 | 138 | 6.0 | 10.0 | 0.00 | 0.00 | 0.00 | 60 | |
| 20260509014244 | 74 | 106 | 6.0 | 11.0 | 0.00 | 0.00 | 0.00 | 59 | |
| 20260509013746 | 75 | 93 | 6.0 | 11.0 | 0.00 | 0.00 | 0.00 | 58 | |
| 20260509013233 | 75 | 147 | 6.0 | 10.0 | 0.00 | 0.00 | 0.00 | 58 | |
| 20260509012756 | 76 | 102 | 7.0 | 11.0 | 0.00 | 0.00 | 0.00 | 57 | |
| 20260509012301 | 76 | 97 | 5.0 | 11.0 | 0.00 | 0.00 | 0.00 | 56 | |
| 20260509011801 | 76 | 103 | 6.0 | 10.0 | 0.00 | 0.00 | 0.00 | 56 | |
| 20260509011246 | 77 | 97 | 6.0 | 11.0 | 0.00 | 0.00 | 0.00 | 55 | |
| 20260509010817 | 78 | 104 | 8.0 | 11.0 | 0.00 | 0.00 | 0.00 | 54 | |
| 20260509010234 | 78 | 105 | 7.0 | 10.0 | 0.00 | 0.00 | 0.00 | 54 | |
| 20260509005735 | 78 | 93 | 5.0 | 9.0 | 0.00 | 0.00 | 0.00 | 53 | |
| 20260509005237 | 79 | 107 | 6.0 | 9.0 | 0.00 | 0.00 | 0.00 | 53 | |
| 20260509004738 | 79 | 167 | 4.0 | 9.0 | 0.00 | 0.00 | 0.00 | 53 | |
| 20260509004255 | 79 | 101 | 4.0 | 9.0 | 0.00 | 0.00 | 0.00 | 53 | |
| 20260509003734 | 80 | 150 | 4.0 | 10.0 | 0.00 | 0.00 | 0.00 | 52 | |
| 20260509003259 | 80 | 79 | 5.0 | 8.0 | 0.00 | 0.00 | 0.00 | 51 | |
| 20260509002757 | 80 | 154 | 6.0 | 9.0 | 0.00 | 0.00 | 0.00 | 51 | |
| 20260509002255 | 80 | 132 | 6.0 | 9.0 | 0.00 | 0.00 | 0.00 | 51 | |
| 20260509001738 | 81 | 91 | 3.0 | 10.0 | 0.00 | 0.00 | 0.00 | 51 | |
| 20260509001259 | 81 | 122 | 3.0 | 8.0 | 0.00 | 0.00 | 0.00 | 51 | |
| 20260509000738 | 80 | 92 | 2.0 | 9.0 | 0.00 | 0.00 | 0.00 | 51 | |
| 20260509000251 | 80 | 100 | 5.0 | 10.0 | 0.00 | 0.00 | 0.00 | 51 | |
| 20260508235754 | 80 | 65 | 6.0 | 11.0 | 0.00 | 0.00 | 0.00 | 51 | |
| 20260508235235 | 80 | 92 | 7.0 | 11.0 | 0.00 | 0.00 | 0.00 | 51 | |
| 20260508234737 | 80 | 73 | 3.0 | 10.0 | 0.00 | 0.00 | 0.00 | 51 | |
| 20260508234245 | 81 | 156 | 5.0 | 10.0 | 0.00 | 0.00 | 0.00 | 50 | |
| 20260508233747 | 81 | 104 | 4.0 | 9.0 | 0.00 | 0.00 | 0.00 | 50 | |
| 20260508233252 | 81 | 90 | 3.0 | 9.0 | 0.00 | 0.00 | 0.00 | 50 | |
| 20260508232733 | 81 | 145 | 5.0 | 9.0 | 0.00 | 0.00 | 0.00 | 50 | |
| 20260508232244 | 81 | 78 | 4.0 | 10.0 | 0.00 | 0.00 | 0.00 | 50 | |
| 20260508231743 | 81 | 114 | 5.0 | 10.0 | 0.00 | 0.00 | 0.00 | 50 | |
| 20260508231244 | 81 | 131 | 4.0 | 11.0 | 0.00 | 0.00 | 0.00 | 51 | |
| 20260508230744 | 81 | 147 | 4.0 | 9.0 | 0.00 | 0.00 | 0.00 | 50 | |
| 20260508230238 | 81 | 102 | 6.0 | 9.0 | 0.00 | 0.00 | 0.00 | 50 | |
| 20260508225735 | 81 | 139 | 6.0 | 11.0 | 0.00 | 0.00 | 0.00 | 50 | |
| 20260508225244 | 81 | 144 | 6.0 | 11.0 | 0.00 | 0.00 | 0.00 | 50 | |
| 20260508224804 | 81 | 127 | 5.0 | 11.0 | 0.00 | 0.00 | 0.00 | 50 | |
| 20260508224237 | 82 | 160 | 5.0 | 9.0 | 0.00 | 0.00 | 0.00 | 49 | |
| 20260508223736 | 82 | 108 | 5.0 | 9.0 | 0.00 | 0.00 | 0.00 | 48 | |
| 20260508223256 | 83 | 115 | 6.0 | 9.0 | 0.00 | 0.00 | 0.00 | 48 | |
| 20260508222755 | 83 | 140 | 7.0 | 13.0 | 0.00 | 0.00 | 0.00 | 47 | |
| 20260508222238 | 84 | 85 | 4.0 | 10.0 | 0.00 | 0.00 | 0.00 | 46 | |
| 20260508221736 | 84 | 122 | 5.0 | 8.0 | 0.00 | 0.00 | 0.00 | 46 | |
| 20260508221254 | 84 | 152 | 2.0 | 8.0 | 0.00 | 0.00 | 0.00 | 47 | |
| 20260508220734 | 84 | 53 | 3.0 | 6.0 | 0.00 | 0.00 | 0.00 | 45 | |
| 20260508220238 | 84 | 93 | 2.0 | 7.0 | 0.00 | 0.00 | 0.00 | 45 | |
| 20260508215757 | 84 | 255 | 1.0 | 7.0 | 0.00 | 0.00 | 0.00 | 46 | |
| 20260508215240 | 84 | 336 | 3.0 | 8.0 | 0.00 | 0.00 | 0.00 | 45 | |
| 20260508214740 | 84 | 320 | 3.0 | 9.0 | 0.00 | 0.00 | 0.00 | 45 | |
| 20260508214241 | 84 | 30 | 2.0 | 9.0 | 0.00 | 0.00 | 0.00 | 45 | |
| 20260508213742 | 84 | 320 | 5.0 | 9.0 | 0.00 | 0.00 | 0.00 | 44 | |
| 20260508213240 | 84 | 32 | 3.0 | 8.0 | 0.00 | 0.00 | 0.00 | 45 | |
| 20260508212740 | 85 | 35 | 3.0 | 8.0 | 0.00 | 0.00 | 0.00 | 44 | |
| 20260508212247 | 84 | 284 | 3.0 | 8.0 | 0.00 | 0.00 | 0.00 | 46 | |
| 20260508211744 | 83 | 316 | 4.0 | 11.0 | 0.00 | 0.00 | 0.00 | 47 | |
| 20260508211243 | 82 | 291 | 6.0 | 11.0 | 0.00 | 0.00 | 0.00 | 47 | |
| 20260508210801 | 82 | 272 | 1.0 | 6.0 | 0.00 | 0.00 | 0.00 | 48 | |
| 20260508210257 | 82 | 318 | 2.0 | 6.0 | 0.00 | 0.00 | 0.00 | 47 | |
| 20260508205756 | 82 | 337 | 3.0 | 7.0 | 0.00 | 0.00 | 0.00 | 48 | |
| 20260508205235 | 81 | 25 | 4.0 | 7.0 | 0.00 | 0.00 | 0.00 | 49 | |
| 20260508204755 | 80 | 359 | 1.0 | 5.0 | 0.00 | 0.00 | 0.00 | 50 | |
| 20260508204256 | 79 | 222 | 3.0 | 6.0 | 0.00 | 0.00 | 0.00 | 51 | |
| 20260508203738 | 79 | 154 | 3.0 | 7.0 | 0.00 | 0.00 | 0.00 | 51 | |
| 20260508203237 | 79 | 142 | 4.0 | 7.0 | 0.00 | 0.00 | 0.00 | 50 | |
| 20260508202757 | 79 | 70 | 3.0 | 8.0 | 0.00 | 0.00 | 0.00 | 50 | |
| 20260508202233 | 79 | 26 | 4.0 | 8.0 | 0.00 | 0.00 | 0.00 | 51 | |
| 20260508201812 | 78 | 45 | 3.0 | 6.0 | 0.00 | 0.00 | 0.00 | 51 | |
| 20260508201249 | 78 | 28 | 2.0 | 6.0 | 0.00 | 0.00 | 0.00 | 52 | |
| 20260508200750 | 77 | 66 | 1.0 | 6.0 | 0.00 | 0.00 | 0.00 | 53 | |
| 20260508200254 | 77 | 131 | 3.0 | 7.0 | 0.00 | 0.00 | 0.00 | 53 | |
| 20260508195755 | 76 | 93 | 3.0 | 6.0 | 0.00 | 0.00 | 0.00 | 54 | |
| 20260508195237 | 76 | 27 | 3.0 | 6.0 | 0.00 | 0.00 | 0.00 | 54 | |
| 20260508194756 | 76 | 63 | 3.0 | 7.0 | 0.00 | 0.00 | 0.00 | 55 | |
| 20260508194233 | 75 | 155 | 3.0 | 7.0 | 0.00 | 0.00 | 0.00 | 55 | |
| 20260508193738 | 75 | 85 | 3.0 | 7.0 | 0.00 | 0.00 | 0.00 | 56 | |
| 20260508193234 | 74 | 140 | 2.0 | 8.0 | 0.00 | 0.00 | 0.00 | 58 | |
| 20260508192732 | 74 | 191 | 4.0 | 8.0 | 0.00 | 0.00 | 0.00 | 57 | |
| 20260508192235 | 74 | 85 | 3.0 | 7.0 | 0.00 | 0.00 | 0.00 | 57 | |
| 20260508191755 | 74 | 215 | 2.0 | 7.0 | 0.00 | 0.00 | 0.00 | 58 | |
| 20260508191257 | 73 | 96 | 4.0 | 8.0 | 0.00 | 0.00 | 0.00 | 59 | |
| 20260508190737 | 73 | 67 | 4.0 | 8.0 | 0.00 | 0.00 | 0.00 | 59 | |
| 20260508190235 | 73 | 94 | 3.0 | 8.0 | 0.00 | 0.00 | 0.00 | 59 | |
| 20260508185735 | 73 | 84 | 3.0 | 9.0 | 0.00 | 0.00 | 0.00 | 60 | |
| 20260508185245 | 73 | 108 | 5.0 | 9.0 | 0.00 | 0.00 | 0.00 | 59 | |
| 20260508184744 | 73 | 89 | 3.0 | 6.0 | 0.00 | 0.00 | 0.00 | 60 | |
| 20260508184245 | 72 | 93 | 1.0 | 5.0 | 0.00 | 0.00 | 0.00 | 61 | |
| 20260508183746 | 72 | 148 | 2.0 | 5.0 | 0.00 | 0.00 | 0.00 | 61 | |
| 20260508183238 | 71 | 320 | 1.0 | 4.0 | 0.00 | 0.00 | 0.00 | 63 | |
| 20260508182755 | 71 | 164 | 2.0 | 7.0 | 0.00 | 0.00 | 0.00 | 63 | |
| 20260508182239 | 71 | 92 | 3.0 | 5.0 | 0.00 | 0.00 | 0.00 | 63 | |
| 20260508181758 | 70 | 205 | 2.0 | 7.0 | 0.00 | 0.00 | 0.00 | 64 | |
| 20260508181235 | 70 | 166 | 3.0 | 7.0 | 0.00 | 0.00 | 0.00 | 65 | |
| 20260508180756 | 69 | 147 | 1.0 | 5.0 | 0.00 | 0.00 | 0.00 | 66 | |
| 20260508180256 | 69 | 61 | 3.0 | 6.0 | 0.00 | 0.00 | 0.00 | 66 | |
| 20260508175735 | 68 | 103 | 2.0 | 8.0 | 0.00 | 0.00 | 0.00 | 66 | |
| 20260508175236 | 69 | 53 | 3.0 | 8.0 | 0.00 | 0.00 | 0.00 | 65 | |
| 20260508174736 | 69 | 151 | 2.0 | 5.0 | 0.00 | 0.00 | 0.00 | 65 | |
| 20260508174255 | 69 | 109 | 1.0 | 4.0 | 0.00 | 0.00 | 0.00 | 67 | |
| 20260508173735 | 69 | 145 | 2.0 | 5.0 | 0.00 | 0.00 | 0.00 | 67 | |
| 20260508173236 | 69 | 121 | 2.0 | 5.0 | 0.00 | 0.00 | 0.00 | 68 | |
| 20260508172757 | 68 | 186 | 2.0 | 5.0 | 0.00 | 0.00 | 0.00 | 67 | |
| 20260508172242 | 68 | 247 | 1.0 | 5.0 | 0.00 | 0.00 | 0.00 | 69 | |
| 20260508171740 | 67 | 206 | 3.0 | 5.0 | 0.00 | 0.00 | 0.00 | 71 | |
| 20260508171241 | 66 | 197 | 3.0 | 5.0 | 0.00 | 0.00 | 0.00 | 72 | |
| 20260508170739 | 65 | 280 | 1.0 | 5.0 | 0.00 | 0.00 | 0.00 | 73 | |
| 20260508170233 | 65 | 104 | 1.0 | 6.0 | 0.00 | 0.00 | 0.00 | 74 | |
| 20260508165732 | 64 | 104 | 3.0 | 6.0 | 0.00 | 0.00 | 0.00 | 75 | |
| 20260508165301 | 64 | 135 | 1.0 | 4.0 | 0.00 | 0.00 | 0.00 | 76 | |
| 20260508164740 | 64 | 217 | 2.0 | 4.0 | 0.00 | 0.00 | 0.00 | 75 | |
| 20260508164240 | 64 | 208 | 3.0 | 4.0 | 0.00 | 0.00 | 0.00 | 75 | |
| 20260508163735 | 64 | 224 | 2.0 | 4.0 | 0.00 | 0.00 | 0.00 | 78 | |
| 20260508163233 | 63 | 293 | 1.0 | 4.0 | 0.00 | 0.00 | 0.00 | 80 | |
| 20260508162731 | 62 | 247 | 1.0 | 3.0 | 0.00 | 0.00 | 0.00 | 80 | |
| 20260508162239 | 62 | 234 | 1.0 | 5.0 | 0.00 | 0.00 | 0.00 | 81 | |
| 20260508161740 | 61 | 217 | 3.0 | 5.0 | 0.00 | 0.00 | 0.00 | 81 | |
| 20260508161247 | 61 | 264 | 0.0 | 4.0 | 0.00 | 0.00 | 0.00 | 81 | |
| 20260508160749 | 61 | 305 | 1.0 | 4.0 | 0.00 | 0.00 | 0.00 | 82 | |
| 20260508160315 | 61 | 264 | 1.0 | 4.0 | 0.00 | 0.00 | 0.00 | 83 | |
| 20260508155735 | 61 | 258 | 2.0 | 4.0 | 0.00 | 0.00 | 0.00 | 83 | |
| 20260508155232 | 60 | 267 | 1.0 | 3.0 | 0.00 | 0.00 | 0.00 | 84 | |
| 20260508154733 | 60 | 261 | 0.0 | 0.0 | 0.00 | 0.00 | 0.00 | 84 | |
| 20260508154258 | 60 | 113 | 0.0 | 0.0 | 0.00 | 0.00 | 0.00 | 84 |